Flag for Germany Weather past 2 weeks in Papenburg, Lower Saxony, Germany

Now
48 °F

Sunny.


Feels Like: 47 °F
Forecast: 48 / 62 °F
Wind: 5 mph from Northeast

Location: Emden-Koenigspolder


UV Index: 0 (Low)

Visibility: 5 mi


Pressure: 29.93 "Hg

Humidity: 87%

Dew point: 45 °F

Location of PapenburgLocation

Historic Weather in Papenburg

°F

Papenburg temperature yesterday

Maximum temperature yesterday: 58 °F (at 3:00 PM)
Minimum temperature yesterday: 38 °F (at 6:00 AM)
Average temperature yesterday: 49 °F

Past Weeks' High & Low Weather Summary

 TemperatureHumidityPressure
High68 °F (Apr 7, 4:00 PM)100% (Apr 12, 1:00 AM)30.46 "Hg (Apr 12, 1:00 AM)
Low31 °F (Apr 16, 7:00 AM)38% (Apr 17, 3:00 PM)29.62 "Hg (Apr 8, 6:00 AM)
Average49 °F81%30.05 "Hg
* Reported Apr 5 7:00 AM — Apr 20 7:00 AM, Papenburg, Weather by CustomWeather, © 2014

Note: Actual official high and low records may vary slightly from our data, if they occured in-between our weather recording intervals... More about our weather records

Advertising

Historic Weather Conditions — Data for Previous 24 hours

 ConditionsComfort  
Time TempWeatherWind HumidityBarometerVisibility
7:00 AM
Apr 20
44 °FFog.2 mph92%29.93 "Hg3 mi
6:00 AM46 °FFog.3 mph89%29.94 "Hg4 mi
5:00 AM47 °FPassing clouds.3 mph86%29.95 "Hg5 mi
4:00 AM47 °FFog.3 mph87%29.96 "Hg4 mi
3:00 AM48 °FPassing clouds.3 mph85%29.98 "Hg5 mi
2:00 AM48 °FFog.2 mph85%30.00 "Hg3 mi
1:00 AM49 °FFog.3 mph80%30.03 "Hg3 mi
12:00 AM50 °FClear.5 mph80%30.04 "Hg3 mi
11:00 PM
Apr 19
51 °FClear.5 mph78%30.05 "Hg2 mi
10:00 PM52 °FClear.6 mph76%30.06 "Hg2 mi
9:00 PM54 °FClear.7 mph71%30.06 "Hg2 mi
8:00 PM55 °FSunny.6 mph76%30.06 "Hg3 mi
7:00 PM56 °FSunny.7 mph75%30.06 "Hg4 mi
6:00 PM57 °FSunny.7 mph67%30.09 "Hg11 mi
4:00 PM58 °FScattered clouds.7 mph67%30.11 "Hg14 mi
3:00 PM58 °FSunny.9 mph57%30.13 "Hg13 mi
2:00 PM57 °FScattered clouds.6 mph63%30.14 "Hg17 mi
1:00 PM56 °FSunny.7 mph59%30.15 "Hg19 mi
12:00 PM53 °FSunny.7 mph64%30.15 "Hg12 mi
11:00 AM51 °FSunny.6 mph72%30.16 "Hg16 mi
10:00 AM48 °FSunny.6 mph86%30.16 "Hg5 mi
9:00 AM44 °FPassing clouds.5 mph92%30.15 "Hg5 mi
8:00 AM41 °FSunny.5 mph95%30.13 "Hg5 mi
Weather by CustomWeather, © 2014

See weather overview